Weather History for EGDM - December, 2012

Change the Weather History Date:

Wednesday, December 12, 2012

  Actual Average Record
Temperature  
Mean Temperature 28 °F -  
Max Temperature 37 °F 42 °F 55 °F (2000)
Min Temperature 19 °F 35 °F 19 °F (2012)
Degree Days  
Heating Degree Days 37    
Moisture  
Dew Point 26 °F    
Average Humidity 90    
Maximum Humidity 100    
Minimum Humidity 80    
Precipitation  
Precipitation 0.00 in - - ()
Sea Level Pressure  
Sea Level Pressure 30.06 in    
Wind  
Wind Speed 4 mph ()    
Max Wind Speed 12 mph    
Max Gust Speed -    
Visibility 6.1 miles    
Events Fog    
Averages and records for this station are not official NWS values.
T = Trace of Precipitation, MM = Missing Value Source: Averaged Metar Reports

Daily Weather History Graph

Daily Weather History Graph

Search for Another Location

Airport or City:

Trip Planner

Search our weather history database for the weather conditions in past years. The results will help you decide how hot, cold, wet, or windy it might be!

Date:

Astronomy

Dec. 12, 2012 Rise Set
Actual Time 8:02 AM GMT 3:59 PM GMT
Civil Twilight 7:22 AM GMT 4:39 PM GMT
Nautical Twilight 6:39 AM GMT 5:21 PM GMT
Astronomical Twilight 5:59 AM GMT 6:02 PM GMT
Moon 6:46 AM GMT (12/12) 3:24 PM GMT (12/12)
Length of Visible Light 9h 16m
Length of Day
7h 57m
Waning Crescent, 1% of the Moon is Illuminated
Dec 12
Waning Crescent
Dec 13
New
Dec 20
First Quarter
Dec 28
Full
Jan 5
Last Quarter

Hourly Weather History & Observations

Time (GMT) Temp. Windchill Dew Point Humidity Pressure Visibility Wind Dir Wind Speed Gust Speed Precip Events Conditions
12:50 AM 19.4 °F - 17.6 °F 93% 30.27 in - Calm Calm - N/A   Partly Cloudy
1:50 AM 21.2 °F - 17.6 °F 86% 30.27 in - Calm Calm - N/A   Unknown
2:50 AM 20 °F - 18 °F 89% 30.29 in 6 mi Calm Calm - - Fog Fog
2:50 AM 21.2 °F - 17.6 °F 86% 30.24 in 6.2 mi Calm Calm - N/A   Unknown
3:50 AM 23.0 °F - 21.2 °F 93% 30.21 in 6.2 mi Calm Calm - N/A   Unknown
4:50 AM 24.8 °F 20.5 °F 23.0 °F 93% 30.18 in 6.2 mi ENE 3.5 mph - N/A   Unknown
5:50 AM 26 °F - 24 °F 88% 30.22 in 7 mi ENE 3.5 mph - -  
5:50 AM 26.6 °F 22.6 °F 24.8 °F 93% 30.18 in 6.2 mi ENE 3.5 mph - N/A   Unknown
6:50 AM 26.6 °F 19.1 °F 24.8 °F 93% 30.15 in 6.2 mi East 6.9 mph - N/A   Mostly Cloudy
7:50 AM 26.6 °F 19.1 °F 24.8 °F 93% 30.15 in 6.2 mi East 6.9 mph - N/A   Mostly Cloudy
8:50 AM 27 °F - 25 °F 91% 30.18 in 7 mi East 8.1 mph - -   Mostly Cloudy
8:50 AM 26.6 °F 18.2 °F 24.8 °F 93% 30.15 in 6.2 mi East 8.1 mph - N/A   Mostly Cloudy
9:50 AM 28.4 °F 21.2 °F 26.6 °F 93% 30.12 in 6.2 mi East 6.9 mph - N/A   Mostly Cloudy
10:50 AM 30.2 °F 24.3 °F 28.4 °F 93% 30.12 in 6.2 mi East 5.8 mph - N/A   Mostly Cloudy
11:50 AM 31 °F - 29 °F 91% 30.12 in 6 mi East 6.9 mph - -   Mostly Cloudy
11:50 AM 32.0 °F 25.6 °F 30.2 °F 93% 30.09 in 6.2 mi East 6.9 mph - N/A   Mostly Cloudy
12:50 PM 33.8 °F 29.6 °F 32.0 °F 93% 30.06 in 5.6 mi ESE 4.6 mph - N/A   Mostly Cloudy
1:50 PM 37.4 °F 33.8 °F 33.8 °F 87% 30.04 in 5.6 mi SSE 4.6 mph - N/A   Haze
2:50 PM 35 °F - 32 °F 83% 30.04 in 6 mi SE 5.8 mph - -   Mostly Cloudy
2:50 PM 35.6 °F 30.7 °F 32.0 °F 87% 30.01 in 5.6 mi SE 5.8 mph - N/A   Haze
3:50 PM 32.0 °F 24.8 °F 32.0 °F 100% 29.98 in 5.0 mi ESE 8.1 mph - N/A   Mostly Cloudy
4:12 PM 32.0 °F 25.6 °F 30.2 °F 93% 29.98 in 4.3 mi ESE 6.9 mph - N/A   Mostly Cloudy
4:50 PM 30.2 °F 21.9 °F 28.4 °F 93% 29.98 in 4.3 mi ESE 9.2 mph - N/A   Mostly Cloudy
5:50 PM 30 °F - 29 °F 93% 29.99 in 6 mi ESE 5.8 mph - -   Scattered Clouds
5:50 PM 30.2 °F 24.3 °F 28.4 °F 93% 29.95 in 6.2 mi ESE 5.8 mph - N/A   Mostly Cloudy
6:50 PM 28.4 °F 20.4 °F 26.6 °F 93% 29.92 in 6.2 mi ESE 8.1 mph - N/A   Mostly Cloudy
7:50 PM 28.4 °F 19.7 °F 26.6 °F 93% 29.92 in 6.2 mi East 9.2 mph - N/A   Mostly Cloudy
8:50 PM 29 °F - 25 °F 80% 29.93 in 8 mi East 10.4 mph - -   Overcast
8:50 PM 28.4 °F 19.1 °F 24.8 °F 86% 29.89 in 6.2 mi East 10.4 mph - N/A   Overcast
9:50 PM 28.4 °F 19.1 °F 24.8 °F 86% 29.86 in 6.2 mi East 10.4 mph - N/A   Overcast
10:50 PM 28.4 °F 18.5 °F 24.8 °F 86% 29.86 in 6.2 mi East 11.5 mph - N/A   Mostly Cloudy
11:50 PM 28 °F - 24 °F 80% 29.86 in 6 mi East 11.5 mph - -   Mostly Cloudy
11:50 PM 28.4 °F 18.5 °F 24.8 °F 86% 29.83 in 6.2 mi East 11.5 mph - N/A   Mostly Cloudy